Weather History for Valdez Airport, AK

Change the Weather History Date:

Monday, November 4, 2013

  Actual Average Record
Temperature  
Mean Temperature 38 °F -  
Max Temperature 44 °F 36 °F 46 °F (1966)
Min Temperature 33 °F 26 °F 5 °F (1971)
Degree Days  
Heating Degree Days 26    
Moisture  
Dew Point 30 °F    
Average Humidity 73    
Maximum Humidity 93    
Minimum Humidity 49    
Precipitation  
Precipitation 0.00 in - - ()
Sea Level Pressure  
Sea Level Pressure 29.42 in    
Wind  
Wind Speed 1 mph (ENE)    
Max Wind Speed 7 mph    
Max Gust Speed -    
Visibility 10 miles    
Events      
Averages and records for this station are not official NWS values.
T = Trace of Precipitation, MM = Missing Value Source: NWS Daily Summary

Daily Weather History Graph

Daily Weather History Graph

Search for Another Location

Airport:

Trip Planner

Search our weather history database for the weather conditions in past years. The results will help you decide how hot, cold, wet, or windy it might be!

Date:

Astronomy

Nov. 04, 2013 Rise Set
Actual Time 8:21 AM AKST 4:34 PM AKST
Civil Twilight 7:33 AM AKST 5:22 PM AKST
Nautical Twilight 6:41 AM AKST 6:14 PM AKST
Astronomical Twilight 5:51 AM AKST 7:04 PM AKST
Moon 10:05 AM AKST (11/4) 5:23 PM AKST (11/4)
Length of Visible Light 9h 48m
Length of Day
8h 12m
New Moon, 2% of the Moon is Illuminated
Nov 4
New Moon
Nov 9
First Quarter
Nov 17
Full
Nov 25
Last Quarter
Dec 2
New

Hourly Weather History & Observations

Time (AKST) Temp. Windchill Dew Point Humidity Pressure Visibility Wind Dir Wind Speed Gust Speed Precip Events Conditions
12:16 AM 35.6 °F - 32.0 °F 87% 29.69 in 6.0 mi Calm Calm - N/A   Overcast
12:36 AM 35.6 °F - 33.8 °F 93% 29.68 in 6.0 mi Calm Calm - N/A   Overcast
12:56 AM 35.6 °F - 32.0 °F 87% 29.67 in 3.0 mi Calm Calm - N/A   Overcast
1:16 AM 35.6 °F 32.8 °F 33.8 °F 93% 29.66 in 10.0 mi East 3.5 mph - N/A   Overcast
1:36 AM 35.6 °F - 33.8 °F 93% 29.66 in 10.0 mi Calm Calm - N/A   Overcast
1:56 AM 33.8 °F - 32.0 °F 93% 29.64 in 6.0 mi Calm Calm - N/A   Overcast
2:16 AM 33.8 °F - 32.0 °F 93% 29.63 in 9.0 mi Calm Calm - N/A   Overcast
2:36 AM 33.8 °F - 32.0 °F 93% 29.62 in 10.0 mi Calm Calm - N/A   Mostly Cloudy
2:56 AM 33.8 °F - 30.2 °F 87% 29.60 in 10.0 mi Calm Calm - N/A   Overcast
3:16 AM 33.8 °F - 30.2 °F 87% 29.60 in 10.0 mi Calm Calm - N/A   Overcast
3:36 AM 35.6 °F - 33.8 °F 93% 29.58 in 10.0 mi Calm Calm - N/A   Overcast
3:56 AM 33.8 °F - 30.2 °F 87% 29.58 in 10.0 mi Calm Calm - N/A   Overcast
4:16 AM 33.8 °F - 32.0 °F 93% 29.57 in 10.0 mi Calm Calm - N/A   Overcast
4:36 AM 33.8 °F - 30.2 °F 87% 29.56 in 10.0 mi Calm Calm - N/A   Overcast
4:56 AM 33.8 °F - 32.0 °F 93% 29.54 in 10.0 mi Calm Calm - N/A   Overcast
5:16 AM 33.8 °F - 30.2 °F 87% 29.54 in 10.0 mi Calm Calm - N/A   Mostly Cloudy
5:36 AM 33.8 °F - 30.2 °F 87% 29.52 in 10.0 mi Calm Calm - N/A   Partly Cloudy
5:56 AM 33.8 °F - 30.2 °F 87% 29.51 in 10.0 mi Calm Calm - N/A   Scattered Clouds
6:16 AM 33.8 °F - 30.2 °F 87% 29.49 in 10.0 mi Calm Calm - N/A   Scattered Clouds
6:36 AM 33.8 °F - 28.4 °F 81% 29.47 in 10.0 mi Calm Calm - N/A   Scattered Clouds
6:56 AM 33.8 °F - 30.2 °F 87% 29.46 in 10.0 mi Calm Calm - N/A   Mostly Cloudy
7:16 AM 33.8 °F - 30.2 °F 87% 29.44 in 10.0 mi Calm Calm - N/A   Mostly Cloudy
7:36 AM 35.6 °F - 30.2 °F 81% 29.44 in 10.0 mi Calm Calm - N/A   Mostly Cloudy
7:56 AM 35.6 °F - 30.2 °F 81% 29.42 in 10.0 mi Calm Calm - N/A   Mostly Cloudy
8:16 AM 37.4 °F 33.8 °F 30.2 °F 75% 29.41 in 10.0 mi East 4.6 mph - N/A   Mostly Cloudy
8:36 AM 37.4 °F 34.9 °F 30.2 °F 75% 29.40 in 10.0 mi East 3.5 mph - N/A   Mostly Cloudy
8:56 AM 39.2 °F - 28.4 °F 65% 29.39 in 10.0 mi Calm Calm - N/A   Mostly Cloudy
9:16 AM 37.4 °F 34.9 °F 28.4 °F 70% 29.38 in 10.0 mi NNW 3.5 mph - N/A   Mostly Cloudy
9:36 AM 37.4 °F 34.9 °F 30.2 °F 75% 29.37 in 10.0 mi East 3.5 mph - N/A   Mostly Cloudy
9:56 AM 37.4 °F - 28.4 °F 70% 29.37 in 10.0 mi Calm Calm - N/A   Mostly Cloudy
10:16 AM 41.0 °F 39.0 °F 28.4 °F 61% 29.36 in 10.0 mi NE 3.5 mph - N/A   Mostly Cloudy
10:36 AM 42.8 °F - 28.4 °F 57% 29.35 in 10.0 mi Calm Calm - N/A   Mostly Cloudy
10:56 AM 41.0 °F 39.0 °F 28.4 °F 61% 29.34 in 10.0 mi SE 3.5 mph - N/A   Mostly Cloudy
11:16 AM 41.0 °F 37.1 °F 28.4 °F 61% 29.33 in 10.0 mi NNE 5.8 mph - N/A   Mostly Cloudy
11:36 AM 42.8 °F 39.3 °F 28.4 °F 57% 29.32 in 10.0 mi ENE 5.8 mph - N/A   Mostly Cloudy
11:56 AM 42.8 °F 40.1 °F 28.4 °F 57% 29.31 in 10.0 mi ESE 4.6 mph - N/A   Mostly Cloudy
12:16 PM 42.8 °F - 28.4 °F 57% 29.31 in 10.0 mi Calm Calm - N/A   Mostly Cloudy
12:36 PM 42.8 °F - 28.4 °F 57% 29.30 in 10.0 mi Calm Calm - N/A   Mostly Cloudy
12:56 PM 42.8 °F - 28.4 °F 57% 29.30 in 10.0 mi Calm Calm - N/A   Mostly Cloudy
1:16 PM 44.6 °F 42.2 °F 28.4 °F 53% 29.29 in 10.0 mi NE 4.6 mph - N/A   Mostly Cloudy
1:36 PM 44.6 °F - 28.4 °F 53% 29.29 in 10.0 mi Calm Calm - N/A   Mostly Cloudy
1:56 PM 44.6 °F - 26.6 °F 49% 29.29 in 10.0 mi Calm Calm - N/A   Overcast
2:16 PM 41.0 °F - 33.8 °F 76% 29.29 in 10.0 mi Calm Calm - N/A   Overcast
2:36 PM 41.0 °F - 33.8 °F 76% 29.29 in 10.0 mi Calm Calm - N/A   Overcast
2:56 PM 41.0 °F - 35.6 °F 81% 29.29 in 10.0 mi Calm Calm - N/A   Overcast
3:16 PM 39.2 °F - 33.8 °F 81% 29.29 in 10.0 mi Calm Calm - N/A   Overcast
3:36 PM 39.2 °F - 33.8 °F 81% 29.28 in 10.0 mi Calm Calm - N/A   Overcast
3:47 PM 41.0 °F - 32.0 °F 70% 29.27 in 20.0 mi Calm Calm - N/A   Mostly Cloudy
4:47 PM 39.2 °F - 32.0 °F 75% 29.26 in 15.0 mi Calm Calm - N/A   Mostly Cloudy
5:47 PM 42.8 °F 40.1 °F 28.4 °F 57% 29.26 in 10.0 mi North 4.6 mph - N/A   Mostly Cloudy
6:47 PM 42.8 °F 38.6 °F 26.6 °F 53% 29.26 in 10.0 mi SE 6.9 mph - N/A   Partly Cloudy
7:47 PM 42.8 °F 38.6 °F 24.8 °F 49% 29.29 in 10.0 mi East 6.9 mph - N/A   Clear
8:47 PM 41.0 °F - 39.2 °F 93% 29.28 in 10.0 mi Calm Calm - N/A   Clear
9:47 PM 42.8 °F 40.1 °F 24.8 °F 49% 29.29 in 10.0 mi ENE 4.6 mph - N/A   Scattered Clouds
10:36 PM 42.8 °F 40.1 °F 24.8 °F 49% 29.29 in 10.0 mi North 4.6 mph - N/A   Overcast
10:56 PM 42.8 °F 41.1 °F 24.8 °F 49% 29.29 in 10.0 mi NE 3.5 mph - N/A   Mostly Cloudy
11:16 PM 41.0 °F - 24.8 °F 53% 29.29 in 10.0 mi Calm Calm - N/A   Scattered Clouds
11:36 PM 39.2 °F 35.9 °F 24.8 °F 56% 29.31 in 10.0 mi SSE 4.6 mph - N/A   Mostly Cloudy
11:56 PM 42.8 °F - 24.8 °F 49% 29.31 in 10.0 mi Calm Calm - N/A   Mostly Cloudy